Volver al catálogo

CFOSAT

ActivoCienciaSSO
NORAD 43662·PAYLOAD·🇨🇳 China

Lanzado Oct 29, 2018 desde Jiuquan Satellite Launch Center

Loading…

Próximos Pases (próximas 24 horas)

TLE

ActualizadoSource: Space-Track

Época: Sep 14, 2026, 15:19 UTC

1 43662U 18083A   26257.63870529  .00002518  00000-0  13308-3 0  9997
2 43662  97.3653 259.5543 0002570 120.7396 239.4091 15.16374276435991

Sigue CFOSAT en tiempo real con AllMySat

Download on the App Store